Torna al catalogo

THORAD AGENA D DEB

LostPO
NORAD 42513·DEBRIS·🇺🇸 United States

Lanciato Apr 8, 1970 da Vandenberg Space Force Base

Loading…

Prossimi Passaggi (prossime 24 ore)

TLE

ObsoletoSource: Space-Track

Epoca: Dec 24, 2024, 14:03 UTC

1 42513U 70025RT  24359.58583686  .00002472  00000-0  20991-2 0  9999
2 42513  99.9902 284.6650 0012875 119.9604 240.2831 13.88465830561232

Traccia THORAD AGENA D DEB in tempo reale con AllMySat

Download on the App Store